Regional Weather Roundup
Issued by NWS

Home | Current Version | Previous Version | Graphics & Text | Print | Product List | Glossary Off
Versions: 1 2 3 4 5 6 7 8 9 10 11 12 13 14 15 16 17 18 19 20 21 22 23 24 25 26 27 28 29 30 31 32 33 34 35 36 37 38 39 40 41 42 43 44 45 46 47 48 49 50

000
ASUS43 KMKX 201600
RWRWI

WISCONSIN REGIONAL WEATHER ROUNDUP
NATIONAL WEATHER SERVICE MILWAUKEE/SULLIVAN WI
1000 AM CST SAT DEC 20 2014

NOTE: "FAIR" INDICATES FEW OR NO CLOUDS BELOW 12,000 FEET WITH NO
SIGNIFICANT WEATHER AND/OR OBSTRUCTIONS TO VISIBILITY.

WIZ001-002-006>008-014>016-023>028-201700-
NORTHWEST WISCONSIN

CITY           SKY/WX    TMP DP  RH WIND       PRES   REMARKS
SUPERIOR ARPT  CLOUDY    29  26  86 S5        30.16S WCI  24
ASHLAND        CLOUDY    28  24  85 S3        30.20R
HAYWARD        CLOUDY    27  23  85 SE9       30.16S FOG     WCI  18
SIREN          CLOUDY    29  25  84 S8        30.15F FOG     WCI  21
CUMBERLAND     CLOUDY    28  25  86 S9        30.15F FOG     WCI  20
RICE LAKE      CLOUDY    29  25  84 SE7       30.18S WCI  22
CHETEK         CLOUDY    28  24  84 SE7       30.19S WCI  21
LADYSMITH      CLOUDY    28  24  86 SE5       30.20S WCI  23
EAU CLAIRE     NOT AVBL
MENOMONIE      CLOUDY    30  25  81 SE5       30.19S HAZE    WCI  25
NEW RICHMOND   CLOUDY    29  27  92 S8        30.16S FOG     WCI  21
OSCEOLA        CLOUDY    30  27  87 SE8       30.18F FOG     WCI  22
$$

WIZ003>005-009-010-017-018-201700-
NORTH CENTRAL WISCONSIN

CITY           SKY/WX    TMP DP  RH WIND       PRES   REMARKS
MANITOWISH WTR CLOUDY    23  23 100 S5        30.18R FOG     WCI  17
ARBOR VITAE    CLOUDY    25  23  92 S6        30.18R FOG     WCI  18
WOODRUFF       CLOUDY    25  23  92 S6        30.18R FOG     WCI  18
RHINELANDER    CLOUDY    23  22  96 S3        30.19S FOG
EAGLE RIVER    MIX PCPN  23  23 100 CALM      30.18S
LAND O LAKES   CLOUDY    23  23  97 CALM      30.19R FOG
PHILLIPS       CLOUDY    25  23  92 SE6       30.17S FOG     WCI  18
TOMAHAWK       CLOUDY    24  23  93 CALM      30.20R FOG
MEDFORD        CLOUDY    25  23  92 SE3       30.19R FOG
MERRILL        CLOUDY    25  24  94 SE3       30.21R FOG
$$

WIZ029-030-035-036-043>047-201700-
CENTRAL WISCONSIN

CITY           SKY/WX    TMP DP  RH WIND       PRES   REMARKS
WAUSAU         CLOUDY    26  23  88 SE7       30.20S FOG     WCI  18
MOSINEE        CLOUDY    25  25 100 SE6       30.23R FOG     WCI  18
MARSHFIELD     CLOUDY    27  23  85 S7        30.21R WCI  19
STEVENS POINT  CLOUDY    25  22  89 S3        30.24R FOG
WAUPACA        CLOUDY    28  24  82 S3        30.26S FOG
WAUTOMA        CLOUDY    27  25  93 CALM      30.26S FOG
WISC RAPIDS    CLOUDY    27  22  81 S3        30.25R
CAMP DOUGLAS   NOT AVBL
$$

WIZ011>013-019>022-031-037>040-048>050-201700-
NORTHEAST WISCONSIN

CITY           SKY/WX    TMP DP  RH WIND       PRES   REMARKS
ANTIGO         CLOUDY    23  22  98 CALM      30.20S FOG
SHAWANO        CLOUDY    26  23  89 CALM      30.26S
OCONTO         CLOUDY    24  23  97 CALM      30.28S
STURGEON BAY   CLOUDY    27  21  80 CALM      30.28S
GREEN BAY      CLOUDY    26  22  84 S3        30.28R
MANITOWOC      NOT AVBL
APPLETON       CLOUDY    27  21  80 VRB3      30.26S
CLINTONVILLE   CLOUDY    28  23  80 CALM      30.26S FOG
OSHKOSH        CLOUDY    27  21  78 CALM      30.26S HAZE
$$

WIZ032>034-041-042-053>061-201700-
SOUTHWEST WISCONSIN

CITY           SKY/WX    TMP DP  RH WIND       PRES   REMARKS
LA CROSSE      CLOUDY    31  25  78 SE7       30.22S WCI  24
SPARTA         CLOUDY    29  24  82 S3        30.24R
VIROQUA        CLOUDY    27  27 100 SE7       30.20S WCI  20
BOSCOBEL       CLOUDY    31  25  78 CALM      30.25S HAZE
PRAIRIE DU CHI MIX PCPN  29  27  90 E6        30.23F WCI  23
PLATTEVILLE    CLOUDY    29  27  92 CALM      30.24S
$$

WIZ056-057-062-063-064-067-068-201700-
SOUTH CENTRAL WISCONSIN

CITY           SKY/WX    TMP DP  RH WIND       PRES   REMARKS
REEDSBURG      MIX PCPN  27  24  88 SE3       30.24S
BARABOO/DELLS  CLOUDY    27  24  87 S5        30.24S FOG     WCI  22
LONE ROCK      NOT AVBL
MINERAL POINT  CLOUDY    30  28  93 SE5       30.23R FOG     WCI  25
MADISON        FLURRIES  28  24  85 S6        30.25S WCI  22
MIDDLETON      CLOUDY    30  26  85 SE3       30.25S
WATERTOWN      CLOUDY    27  25  92 CALM      30.26S FOG
MONROE         MIX PCPN  28  27  93 SE5       30.23S WCI  23
JANESVILLE     CLOUDY    30  25  80 CALM      30.26S FOG
$$

WIZ051-052-058>065-066-070>072-201700-
SOUTHEAST WISCONSIN

CITY           SKY/WX    TMP DP  RH WIND       PRES   REMARKS
MILWAUKEE      CLOUDY    29  19  66 VRB3      30.27F
WAUKESHA       CLOUDY    27  19  74 CALM      30.27S
MILWAUKEE/TIMM NOT AVBL
RACINE         CLOUDY    28  20  71 CALM      30.29S
BURLINGTON     CLOUDY    26  21  82 CALM      30.27S
KENOSHA        CLOUDY    29  22  75 CALM      30.27S
FOND DU LAC    CLOUDY    27  21  78 CALM      30.26S
SHEBOYGAN      CLOUDY    28  21  75 NW3       30.27S
WEST BEND      CLOUDY    28  21  74 CALM      30.26R
JUNEAU         CLOUDY    26  23  88 SE3       30.26S
$$

LSZ147-162-201700-
LAKE SUPERIOR

STATION/POSITION TIME  TEMP    WIND        PRES    WAVE
                       AIR SEA DIR/SP/G            HT/PER
                 (UTC) (F)     (DEG/KT/KT) (MB)    (FT/S)
DEVILS ISLAND    1500   29     190/  5/  7 1023.1S
PORT WING        1500   29     170/  8/ 13 1022.0R
SAXON HARBOR     1540   29     190/  7/ 11 1022.4R
$$

LMZ867-665-643>646-201700-
LAKE MICHIGAN

STATION/POSITION TIME  TEMP    WIND        PRES    WAVE
                       AIR SEA DIR/SP/G            HT/PER
                 (UTC) (F)     (DEG/KT/KT) (MB)    (FT/S)
CHAMBERS ISLAND  1500   25     240/  2/  3 1025.1S
NORTHPORT PIER   1529   29      CALM  /  4 1025.1S
SISTER BAY       1358             CALM       N/A
ALGOMA LAKESHORE 1514          340/  7/  8   N/A
KEWAUNEE LAKESHO 1506   27     300/  2/  5 1024.0S
SHEBOYGAN LAKESH 1500   29 33  340/  4/  5 1026.1S
PORT WASHINGTON  1540   29     290/  5/  6 1025.7S
MILWAUKEE LAKESH 1500   28     280/  5/  6   N/A
KENOSHA   LAKESH 1500   28     270/  2/  3 1025.4R
$$

TC  - TEMPERATURE IN CELSIUS
VSB - VISIBILITY IN STATUTE MILES
WCI - WIND CHILL INDEX
HX  - HEAT INDEX




USA.gov is the U.S. government's official web portal to all federal, state and local government web resources and services.